| time (UTC) | temp C | wind direction | speed KPH | gust KPH | rain 1hr cm | rain 24hr cm | rain mn cm | humidity % | barometer mb |
| 20260507231721 | 23 | 261 | 14.5 | 16.1 | 0.00 | 0.00 | 0.00 | 21 | 1012.0 |
| 20260507231219 | 23 | 158 | 1.6 | 3.2 | 0.00 | 0.00 | 0.00 | 21 | 1011.8 |
| 20260507230715 | 23 | 137 | 3.2 | 6.4 | 0.00 | 0.00 | 0.00 | 20 | 1011.9 |
| 20260507230213 | 23 | 268 | 6.4 | 6.4 | 0.00 | 0.00 | 0.00 | 18 | 1011.9 |
| 20260507225712 | 24 | 231 | 3.2 | 4.8 | 0.00 | 0.00 | 0.00 | 21 | 1011.8 |
| 20260507225209 | 23 | 219 | 8.0 | 11.3 | 0.00 | 0.00 | 0.00 | 20 | 1012.0 |
| 20260507224705 | 22 | 171 | 3.2 | 3.2 | 0.00 | 0.00 | 0.00 | 18 | 1012.0 |
| 20260507224201 | 23 | 253 | 9.7 | 11.3 | 0.00 | 0.00 | 0.00 | 20 | 1012.1 |
| 20260507223657 | 22 | 267 | 3.2 | 4.8 | 0.00 | 0.00 | 0.00 | 17 | 1011.9 |
| 20260507223154 | 22 | 226 | 6.4 | 11.3 | 0.00 | 0.00 | 0.00 | 20 | 1012.1 |
| 20260507222651 | 23 | 244 | 9.7 | 11.3 | 0.00 | 0.00 | 0.00 | 20 | 1012.2 |
| 20260507222147 | 23 | 174 | 1.6 | 1.6 | 0.00 | 0.00 | 0.00 | 20 | 1012.2 |
| 20260507221644 | 22 | 240 | 9.7 | 11.3 | 0.00 | 0.00 | 0.00 | 20 | 1012.2 |
| 20260507221140 | 23 | 91 | 1.6 | 1.6 | 0.00 | 0.00 | 0.00 | 23 | 1012.2 |
| 20260507220638 | 23 | 310 | 4.8 | 6.4 | 0.00 | 0.00 | 0.00 | 23 | 1012.4 |
| 20260507220136 | 22 | 167 | 0.0 | 1.6 | 0.00 | 0.00 | 0.00 | 22 | 1012.3 |
| 20260507215631 | 22 | 203 | 3.2 | 4.8 | 0.00 | 0.00 | 0.00 | 23 | 1012.4 |
| 20260507215129 | 23 | 254 | 11.3 | 14.5 | 0.00 | 0.00 | 0.00 | 23 | 1012.5 |
| 20260507214626 | 22 | 42 | 8.0 | 9.7 | 0.00 | 0.00 | 0.00 | 24 | 1012.5 |
| 20260507214122 | 22 | 328 | 4.8 | 4.8 | 0.00 | 0.00 | 0.00 | 27 | 1012.3 |
| 20260507213618 | 22 | 253 | 8.0 | 9.7 | 0.00 | 0.00 | 0.00 | 25 | 1012.6 |
| 20260507213116 | 22 | 192 | 6.4 | 6.4 | 0.00 | 0.00 | 0.00 | 25 | 1012.6 |
| 20260507212612 | 23 | 189 | 3.2 | 3.2 | 0.00 | 0.00 | 0.00 | 24 | 1012.5 |
| 20260507212109 | 22 | 152 | 3.2 | 3.2 | 0.00 | 0.00 | 0.00 | 28 | 1012.5 |
| 20260507211605 | 22 | 343 | 3.2 | 6.4 | 0.00 | 0.00 | 0.00 | 27 | 1012.9 |
| 20260507211101 | 22 | 122 | 3.2 | 3.2 | 0.00 | 0.00 | 0.00 | 29 | 1012.6 |
| 20260507210559 | 21 | 270 | 6.4 | 6.4 | 0.00 | 0.00 | 0.00 | 28 | 1012.9 |
| 20260507210055 | 22 | 213 | 6.4 | 9.7 | 0.00 | 0.00 | 0.00 | 30 | 1012.7 |
| 20260507205552 | 22 | 37 | 4.8 | 6.4 | 0.00 | 0.00 | 0.00 | 28 | 1012.7 |
| 20260507205048 | 22 | 321 | 8.0 | 9.7 | 0.00 | 0.00 | 0.00 | 29 | 1012.7 |
| 20260507204545 | 22 | 301 | 4.8 | 6.4 | 0.00 | 0.00 | 0.00 | 30 | 1013.0 |
| 20260507204043 | 21 | 254 | 9.7 | 11.3 | 0.00 | 0.00 | 0.00 | 31 | 1013.0 |
| 20260507203540 | 21 | 355 | 6.4 | 9.7 | 0.00 | 0.00 | 0.00 | 30 | 1012.9 |
| 20260507203038 | 21 | 101 | 3.2 | 4.8 | 0.00 | 0.00 | 0.00 | 32 | 1013.0 |
| 20260507202533 | 21 | 202 | 4.8 | 9.7 | 0.00 | 0.00 | 0.00 | 29 | 1013.0 |
| 20260507202029 | 21 | 1 | 3.2 | 4.8 | 0.00 | 0.00 | 0.00 | 33 | 1013.0 |
| 20260507201525 | 21 | 316 | 6.4 | 9.7 | 0.00 | 0.00 | 0.00 | 31 | 1013.1 |
| 20260507201021 | 21 | 353 | 6.4 | 11.3 | 0.00 | 0.00 | 0.00 | 31 | 1013.2 |
| 20260507200517 | 21 | 142 | 4.8 | 4.8 | 0.00 | 0.00 | 0.00 | 29 | 1013.2 |
| 20260507200014 | 21 | 92 | 3.2 | 4.8 | 0.00 | 0.00 | 0.00 | 28 | 1013.2 |
| 20260507195511 | 21 | 175 | 6.4 | 11.3 | 0.00 | 0.00 | 0.00 | 30 | 1013.2 |
| 20260507195008 | 20 | 192 | 3.2 | 3.2 | 0.00 | 0.00 | 0.00 | 31 | 1013.1 |
| 20260507194504 | 20 | 106 | 3.2 | 3.2 | 0.00 | 0.00 | 0.00 | 28 | 1013.2 |
| 20260507194000 | 20 | 102 | 1.6 | 1.6 | 0.00 | 0.00 | 0.00 | 29 | 1013.4 |
| 20260507193458 | 21 | 266 | 3.2 | 4.8 | 0.00 | 0.00 | 0.00 | 29 | 1013.2 |
| 20260507192954 | 21 | 189 | 1.6 | 3.2 | 0.00 | 0.00 | 0.00 | 32 | 1013.5 |
| 20260507192450 | 20 | 39 | 3.2 | 3.2 | 0.00 | 0.00 | 0.00 | 31 | 1013.3 |
| 20260507191948 | 21 | 131 | 0.0 | 0.0 | 0.00 | 0.00 | 0.00 | 30 | 1013.5 |
| 20260507191443 | 20 | 196 | 4.8 | 6.4 | 0.00 | 0.00 | 0.00 | 30 | 1013.4 |
| 20260507190940 | 20 | 163 | 1.6 | 3.2 | 0.00 | 0.00 | 0.00 | 32 | 1013.6 |
| 20260507190438 | 20 | 202 | 3.2 | 4.8 | 0.00 | 0.00 | 0.00 | 32 | 1013.6 |
| 20260507185937 | 20 | 278 | 9.7 | 11.3 | 0.00 | 0.00 | 0.00 | 33 | 1013.4 |
| 20260507185433 | 20 | 33 | 6.4 | 9.7 | 0.00 | 0.00 | 0.00 | 35 | 1013.6 |
| 20260507184930 | 20 | 312 | 3.2 | 3.2 | 0.00 | 0.00 | 0.00 | 35 | 1013.5 |
| 20260507184428 | 20 | 226 | 4.8 | 4.8 | 0.00 | 0.00 | 0.00 | 33 | 1013.6 |
| 20260507183926 | 18 | 88 | 1.6 | 3.2 | 0.00 | 0.00 | 0.00 | 34 | 1013.6 |
| 20260507183422 | 18 | 233 | 1.6 | 3.2 | 0.00 | 0.00 | 0.00 | 35 | 1014.0 |
| 20260507182920 | 20 | 284 | 6.4 | 9.7 | 0.00 | 0.00 | 0.00 | 35 | 1013.7 |
| 20260507182415 | 20 | 106 | 1.6 | 3.2 | 0.00 | 0.00 | 0.00 | 36 | 1013.7 |
| 20260507181912 | 18 | 158 | 3.2 | 3.2 | 0.00 | 0.00 | 0.00 | 36 | 1013.7 |
| 20260507181408 | 18 | 60 | 4.8 | 4.8 | 0.00 | 0.00 | 0.00 | 38 | 1013.9 |
| 20260507180905 | 18 | 153 | 3.2 | 4.8 | 0.00 | 0.00 | 0.00 | 39 | 1013.9 |
| 20260507180401 | 19 | 59 | 1.6 | 3.2 | 0.00 | 0.00 | 0.00 | 36 | 1013.8 |
| 20260507175857 | 18 | 130 | 0.0 | 0.0 | 0.00 | 0.00 | 0.00 | 36 | 1013.9 |
| 20260507175354 | 17 | 78 | 3.2 | 3.2 | 0.00 | 0.00 | 0.00 | 39 | 1014.0 |
| 20260507174852 | 18 | 282 | 9.7 | 11.3 | 0.00 | 0.00 | 0.00 | 37 | 1013.9 |
| 20260507174349 | 18 | 117 | 3.2 | 3.2 | 0.00 | 0.00 | 0.00 | 38 | 1014.0 |
| 20260507173847 | 18 | 113 | 0.0 | 1.6 | 0.00 | 0.00 | 0.00 | 40 | 1014.0 |
| 20260507173343 | 18 | 28 | 1.6 | 3.2 | 0.00 | 0.00 | 0.00 | 39 | 1014.0 |
| 20260507172840 | 18 | 172 | 1.6 | 3.2 | 0.00 | 0.00 | 0.00 | 39 | 1014.2 |
| 20260507172337 | 18 | 2 | 6.4 | 9.7 | 0.00 | 0.00 | 0.00 | 39 | 1014.0 |
| 20260507171832 | 18 | 274 | 3.2 | 4.8 | 0.00 | 0.00 | 0.00 | 39 | 1014.0 |
| 20260507171329 | 17 | 70 | 4.8 | 6.4 | 0.00 | 0.00 | 0.00 | 38 | 1014.3 |
| 20260507170827 | 17 | 185 | 3.2 | 3.2 | 0.00 | 0.00 | 0.00 | 40 | 1013.9 |
| 20260507170323 | 18 | 194 | 3.2 | 3.2 | 0.00 | 0.00 | 0.00 | 41 | 1013.8 |
| 20260507165819 | 18 | 144 | 1.6 | 3.2 | 0.00 | 0.00 | 0.00 | 42 | 1014.2 |
| 20260507165315 | 17 | 137 | 4.8 | 4.8 | 0.00 | 0.00 | 0.00 | 41 | 1014.2 |
| 20260507164811 | 18 | 174 | 3.2 | 4.8 | 0.00 | 0.00 | 0.00 | 41 | 1013.8 |
| 20260507164308 | 17 | 94 | 0.0 | 1.6 | 0.00 | 0.00 | 0.00 | 41 | 1014.0 |
| 20260507163806 | 17 | 96 | 0.0 | 1.6 | 0.00 | 0.00 | 0.00 | 45 | 1013.8 |
| 20260507163303 | 17 | 105 | 3.2 | 4.8 | 0.00 | 0.00 | 0.00 | 43 | 1013.9 |
| 20260507162759 | 16 | 112 | 1.6 | 1.6 | 0.00 | 0.00 | 0.00 | 48 | 1014.2 |
| 20260507162255 | 16 | 46 | 6.4 | 6.4 | 0.00 | 0.00 | 0.00 | 46 | 1014.0 |
| 20260507161752 | 16 | 64 | 4.8 | 6.4 | 0.00 | 0.00 | 0.00 | 48 | 1013.9 |
| 20260507161249 | 16 | 85 | 1.6 | 1.6 | 0.00 | 0.00 | 0.00 | 49 | 1014.2 |
| 20260507160744 | 16 | 88 | 1.6 | 1.6 | 0.00 | 0.00 | 0.00 | 48 | 1013.7 |
| 20260507160241 | 16 | 102 | 1.6 | 1.6 | 0.00 | 0.00 | 0.00 | 46 | 1013.6 |
| 20260507155737 | 16 | 151 | 1.6 | 1.6 | 0.00 | 0.00 | 0.00 | 48 | 1013.7 |
| 20260507155233 | 15 | 111 | 0.0 | 1.6 | 0.00 | 0.00 | 0.00 | 56 | 1014.0 |
| 20260507154730 | 15 | 92 | 3.2 | 3.2 | 0.00 | 0.00 | 0.00 | 57 | 1014.0 |
| 20260507154228 | 15 | 131 | 0.0 | 0.0 | 0.00 | 0.00 | 0.00 | 58 | 1013.7 |
| 20260507153724 | 13 | 125 | 0.0 | 0.0 | 0.00 | 0.00 | 0.00 | 60 | 1014.2 |
| 20260507153220 | 13 | 109 | 0.0 | 0.0 | 0.00 | 0.00 | 0.00 | 63 | 1014.0 |
| 20260507152717 | 12 | 130 | 0.0 | 0.0 | 0.00 | 0.00 | 0.00 | 66 | 1014.0 |
| 20260507152213 | 11 | 169 | 1.6 | 1.6 | 0.00 | 0.00 | 0.00 | 69 | 1014.0 |
| 20260507151709 | 11 | 94 | 1.6 | 1.6 | 0.00 | 0.00 | 0.00 | 70 | 1014.4 |
| 20260507151206 | 11 | 147 | 0.0 | 0.0 | 0.00 | 0.00 | 0.00 | 71 | 1014.0 |
| 20260507150703 | 11 | 151 | 0.0 | 0.0 | 0.00 | 0.00 | 0.00 | 69 | 1014.2 |
| 20260507150200 | 11 | 120 | 0.0 | 0.0 | 0.00 | 0.00 | 0.00 | 67 | 1014.3 |
| 20260507145655 | 11 | 138 | 0.0 | 0.0 | 0.00 | 0.00 | 0.00 | 68 | 1013.9 |
| 20260507145152 | 10 | 114 | 0.0 | 0.0 | 0.00 | 0.00 | 0.00 | 70 | 1013.9 |
| 20260507144649 | 10 | 114 | 0.0 | 1.6 | 0.00 | 0.00 | 0.00 | 69 | 1013.9 |
| 20260507144147 | 10 | 91 | 0.0 | 0.0 | 0.00 | 0.00 | 0.00 | 70 | 1013.8 |
| 20260507143644 | 10 | 137 | 0.0 | 0.0 | 0.00 | 0.00 | 0.00 | 70 | 1013.9 |
| 20260507143141 | 10 | 132 | 0.0 | 0.0 | 0.00 | 0.00 | 0.00 | 70 | 1013.7 |
| 20260507142636 | 10 | 139 | 0.0 | 0.0 | 0.00 | 0.00 | 0.00 | 71 | 1013.8 |
| 20260507142133 | 10 | 151 | 0.0 | 0.0 | 0.00 | 0.00 | 0.00 | 72 | 1013.8 |
| 20260507141629 | 9 | 161 | 0.0 | 0.0 | 0.00 | 0.00 | 0.00 | 73 | 1013.7 |
| 20260507141127 | 9 | 128 | 0.0 | 0.0 | 0.00 | 0.00 | 0.00 | 73 | 1013.7 |
| 20260507140623 | 9 | 164 | 3.2 | 3.2 | 0.00 | 0.00 | 0.00 | 74 | 1013.8 |
| 20260507140120 | 9 | 120 | 0.0 | 0.0 | 0.00 | 0.00 | 0.00 | 74 | 1013.7 |
| 20260507135617 | 9 | 117 | 0.0 | 1.6 | 0.00 | 0.00 | 0.00 | 73 | 1013.6 |
| 20260507135115 | 10 | 110 | 0.0 | 0.0 | 0.00 | 0.00 | 0.00 | 70 | 1013.7 |
| 20260507134611 | 9 | 137 | 0.0 | 0.0 | 0.00 | 0.00 | 0.00 | 71 | 1013.4 |
| 20260507134107 | 9 | 140 | 0.0 | 0.0 | 0.00 | 0.00 | 0.00 | 71 | 1013.5 |
| 20260507133603 | 9 | 152 | 0.0 | 0.0 | 0.00 | 0.00 | 0.00 | 70 | 1013.6 |
| 20260507133101 | 8 | 116 | 0.0 | 0.0 | 0.00 | 0.00 | 0.00 | 71 | 1013.6 |
| 20260507132557 | 9 | 151 | 0.0 | 0.0 | 0.00 | 0.00 | 0.00 | 70 | 1013.5 |
| 20260507132054 | 8 | 132 | 0.0 | 0.0 | 0.00 | 0.00 | 0.00 | 70 | 1013.4 |
| 20260507131551 | 8 | 114 | 3.2 | 3.2 | 0.00 | 0.00 | 0.00 | 72 | 1013.2 |
| 20260507131048 | 8 | 134 | 0.0 | 0.0 | 0.00 | 0.00 | 0.00 | 72 | 1013.3 |
| 20260507130545 | 8 | 96 | 0.0 | 0.0 | 0.00 | 0.00 | 0.00 | 72 | 1013.5 |
| 20260507130043 | 7 | 136 | 0.0 | 0.0 | 0.00 | 0.00 | 0.00 | 74 | 1013.5 |
| 20260507125542 | 7 | 136 | 0.0 | 0.0 | 0.00 | 0.00 | 0.00 | 75 | 1013.4 |
| 20260507125038 | 7 | 148 | 0.0 | 0.0 | 0.00 | 0.00 | 0.00 | 75 | 1013.4 |
| 20260507124535 | 6 | 133 | 0.0 | 0.0 | 0.00 | 0.00 | 0.00 | 77 | 1013.4 |
| 20260507124033 | 6 | 156 | 1.6 | 1.6 | 0.00 | 0.00 | 0.00 | 77 | 1013.3 |
| 20260507123531 | 6 | 150 | 0.0 | 0.0 | 0.00 | 0.00 | 0.00 | 79 | 1013.4 |
| 20260507123027 | 6 | 163 | 1.6 | 1.6 | 0.00 | 0.00 | 0.00 | 79 | 1013.4 |
| 20260507122522 | 6 | 150 | 1.6 | 1.6 | 0.00 | 0.00 | 0.00 | 78 | 1013.5 |
| 20260507122018 | 7 | 153 | 3.2 | 3.2 | 0.00 | 0.00 | 0.00 | 77 | 1013.3 |
| 20260507121514 | 7 | 162 | 3.2 | 3.2 | 0.00 | 0.00 | 0.00 | 76 | 1013.4 |
| 20260507121010 | 7 | 175 | 3.2 | 3.2 | 0.00 | 0.00 | 0.00 | 76 | 1013.5 |
| 20260507120506 | 7 | 158 | 0.0 | 0.0 | 0.00 | 0.00 | 0.00 | 78 | 1013.2 |
| 20260507120004 | 7 | 148 | 0.0 | 0.0 | 0.00 | 0.00 | 0.00 | 76 | 1013.2 |
| 20260507115459 | 7 | 157 | 0.0 | 0.0 | 0.00 | 0.00 | 0.00 | 76 | 1013.4 |
| 20260507114955 | 7 | 177 | 3.2 | 4.8 | 0.00 | 0.00 | 0.00 | 77 | 1013.3 |
| 20260507114452 | 6 | 158 | 1.6 | 1.6 | 0.00 | 0.00 | 0.00 | 79 | 1013.4 |
| 20260507113949 | 6 | 163 | 1.6 | 1.6 | 0.00 | 0.00 | 0.00 | 79 | 1013.1 |
| 20260507113446 | 6 | 123 | 0.0 | 0.0 | 0.00 | 0.00 | 0.00 | 80 | 1013.1 |
| 20260507112943 | 6 | 147 | 0.0 | 0.0 | 0.00 | 0.00 | 0.00 | 79 | 1013.4 |
| 20260507112441 | 7 | 147 | 0.0 | 0.0 | 0.00 | 0.00 | 0.00 | 80 | 1013.2 |
| 20260507111937 | 7 | 137 | 0.0 | 0.0 | 0.00 | 0.00 | 0.00 | 78 | 1013.5 |
| 20260507111435 | 7 | 147 | 0.0 | 0.0 | 0.00 | 0.00 | 0.00 | 78 | 1013.4 |
| 20260507110931 | 7 | 145 | 0.0 | 0.0 | 0.00 | 0.00 | 0.00 | 77 | 1013.3 |
| 20260507110427 | 8 | 97 | 3.2 | 3.2 | 0.00 | 0.00 | 0.00 | 75 | 1013.5 |
| 20260507105924 | 7 | 147 | 0.0 | 0.0 | 0.00 | 0.00 | 0.00 | 75 | 1013.6 |
| 20260507105421 | 8 | 149 | 1.6 | 3.2 | 0.00 | 0.00 | 0.00 | 74 | 1013.4 |
| 20260507104918 | 8 | 117 | 0.0 | 0.0 | 0.00 | 0.00 | 0.00 | 73 | 1013.3 |
| 20260507104415 | 8 | 169 | 0.0 | 0.0 | 0.00 | 0.00 | 0.00 | 73 | 1013.3 |
| 20260507103910 | 8 | 130 | 0.0 | 0.0 | 0.00 | 0.00 | 0.00 | 73 | 1013.2 |
| 20260507103407 | 8 | 131 | 0.0 | 0.0 | 0.00 | 0.00 | 0.00 | 72 | 1013.4 |
| 20260507102903 | 8 | 144 | 0.0 | 0.0 | 0.00 | 0.00 | 0.00 | 72 | 1013.2 |
| 20260507102400 | 9 | 135 | 0.0 | 0.0 | 0.00 | 0.00 | 0.00 | 70 | 1013.2 |
| 20260507101857 | 8 | 248 | 4.8 | 4.8 | 0.00 | 0.00 | 0.00 | 71 | 1013.3 |
| 20260507101356 | 8 | 135 | 1.6 | 1.6 | 0.00 | 0.00 | 0.00 | 72 | 1013.5 |
| 20260507100854 | 8 | 202 | 4.8 | 4.8 | 0.00 | 0.00 | 0.00 | 74 | 1013.5 |
| 20260507100351 | 8 | 122 | 0.0 | 0.0 | 0.00 | 0.00 | 0.00 | 74 | 1013.4 |
| 20260507095849 | 8 | 122 | 0.0 | 0.0 | 0.00 | 0.00 | 0.00 | 73 | 1013.5 |
| 20260507095346 | 8 | 131 | 0.0 | 0.0 | 0.00 | 0.00 | 0.00 | 72 | 1013.6 |
| 20260507094843 | 8 | 116 | 0.0 | 0.0 | 0.00 | 0.00 | 0.00 | 71 | 1013.6 |
| 20260507094339 | 9 | 149 | 0.0 | 0.0 | 0.00 | 0.00 | 0.00 | 71 | 1013.4 |
| 20260507093837 | 9 | 116 | 0.0 | 0.0 | 0.00 | 0.00 | 0.00 | 70 | 1013.5 |
| 20260507093335 | 10 | 160 | 0.0 | 0.0 | 0.00 | 0.00 | 0.00 | 67 | 1013.4 |
| 20260507092833 | 10 | 168 | 0.0 | 0.0 | 0.00 | 0.00 | 0.00 | 69 | 1013.4 |
| 20260507092329 | 10 | 152 | 0.0 | 0.0 | 0.00 | 0.00 | 0.00 | 68 | 1013.5 |
| 20260507091825 | 10 | 156 | 1.6 | 1.6 | 0.00 | 0.00 | 0.00 | 67 | 1013.3 |
| 20260507091322 | 10 | 150 | 1.6 | 1.6 | 0.00 | 0.00 | 0.00 | 66 | 1013.3 |
| 20260507090817 | 10 | 123 | 0.0 | 0.0 | 0.00 | 0.00 | 0.00 | 65 | 1013.4 |
| 20260507090314 | 10 | 147 | 0.0 | 0.0 | 0.00 | 0.00 | 0.00 | 65 | 1013.4 |
| 20260507085811 | 10 | 119 | 0.0 | 0.0 | 0.00 | 0.00 | 0.00 | 66 | 1013.4 |
| 20260507085308 | 10 | 112 | 0.0 | 1.6 | 0.00 | 0.00 | 0.00 | 65 | 1013.3 |
| 20260507084805 | 10 | 163 | 1.6 | 1.6 | 0.00 | 0.00 | 0.00 | 65 | 1013.2 |
| 20260507084301 | 10 | 137 | 0.0 | 0.0 | 0.00 | 0.00 | 0.00 | 64 | 1013.2 |
| 20260507083759 | 11 | 128 | 0.0 | 0.0 | 0.00 | 0.00 | 0.00 | 62 | 1013.5 |
| 20260507083255 | 11 | 153 | 0.0 | 0.0 | 0.00 | 0.00 | 0.00 | 60 | 1013.4 |
| 20260507082751 | 12 | 126 | 0.0 | 0.0 | 0.00 | 0.00 | 0.00 | 56 | 1013.4 |
| 20260507082247 | 12 | 151 | 0.0 | 0.0 | 0.00 | 0.00 | 0.00 | 55 | 1013.2 |
| 20260507081744 | 12 | 151 | 0.0 | 0.0 | 0.00 | 0.00 | 0.00 | 55 | 1013.4 |
| 20260507081240 | 13 | 134 | 0.0 | 0.0 | 0.00 | 0.00 | 0.00 | 52 | 1013.2 |
| 20260507080737 | 13 | 132 | 0.0 | 0.0 | 0.00 | 0.00 | 0.00 | 51 | 1013.2 |
| 20260507080233 | 13 | 155 | 0.0 | 0.0 | 0.00 | 0.00 | 0.00 | 50 | 1013.2 |
| 20260507075729 | 14 | 155 | 0.0 | 0.0 | 0.00 | 0.00 | 0.00 | 47 | 1013.4 |
| 20260507075225 | 15 | 141 | 0.0 | 0.0 | 0.00 | 0.00 | 0.00 | 47 | 1013.2 |
| 20260507074721 | 15 | 119 | 0.0 | 0.0 | 0.00 | 0.00 | 0.00 | 45 | 1013.5 |
| 20260507074220 | 16 | 138 | 1.6 | 1.6 | 0.00 | 0.00 | 0.00 | 46 | 1013.2 |
| 20260507073716 | 16 | 169 | 1.6 | 3.2 | 0.00 | 0.00 | 0.00 | 42 | 1013.1 |
| 20260507073213 | 16 | 131 | 1.6 | 1.6 | 0.00 | 0.00 | 0.00 | 44 | 1013.2 |
| 20260507072711 | 16 | 203 | 0.0 | 1.6 | 0.00 | 0.00 | 0.00 | 44 | 1013.2 |
| 20260507072208 | 16 | 181 | 1.6 | 3.2 | 0.00 | 0.00 | 0.00 | 43 | 1013.2 |
| 20260507071705 | 16 | 224 | 3.2 | 3.2 | 0.00 | 0.00 | 0.00 | 42 | 1013.2 |
| 20260507071201 | 16 | 217 | 3.2 | 4.8 | 0.00 | 0.00 | 0.00 | 41 | 1013.3 |
| 20260507070659 | 16 | 148 | 0.0 | 0.0 | 0.00 | 0.00 | 0.00 | 41 | 1013.2 |
| 20260507070155 | 16 | 189 | 3.2 | 4.8 | 0.00 | 0.00 | 0.00 | 41 | 1013.3 |
| 20260507065652 | 16 | 163 | 6.4 | 9.7 | 0.00 | 0.00 | 0.00 | 42 | 1013.1 |
| 20260507065149 | 16 | 189 | 6.4 | 9.7 | 0.00 | 0.00 | 0.00 | 41 | 1013.2 |
| 20260507064646 | 16 | 132 | 6.4 | 9.7 | 0.00 | 0.00 | 0.00 | 41 | 1013.3 |
| 20260507064144 | 16 | 180 | 4.8 | 4.8 | 0.00 | 0.00 | 0.00 | 45 | 1013.3 |
| 20260507063642 | 15 | 177 | 4.8 | 9.7 | 0.00 | 0.00 | 0.00 | 47 | 1013.3 |
| 20260507063138 | 16 | 149 | 0.0 | 0.0 | 0.00 | 0.00 | 0.00 | 48 | 1013.5 |
| 20260507062635 | 17 | 148 | 1.6 | 1.6 | 0.00 | 0.00 | 0.00 | 46 | 1013.3 |
| 20260507062133 | 17 | 219 | 1.6 | 3.2 | 0.00 | 0.00 | 0.00 | 41 | 1013.4 |
| 20260507061631 | 17 | 189 | 3.2 | 3.2 | 0.00 | 0.00 | 0.00 | 40 | 1013.4 |
| 20260507061128 | 17 | 147 | 0.0 | 1.6 | 0.00 | 0.00 | 0.00 | 43 | 1013.4 |
| 20260507060626 | 17 | 173 | 1.6 | 3.2 | 0.00 | 0.00 | 0.00 | 41 | 1013.1 |
| 20260507060122 | 17 | 326 | 9.7 | 12.9 | 0.00 | 0.00 | 0.00 | 40 | 1013.4 |
| 20260507055618 | 17 | 166 | 1.6 | 1.6 | 0.00 | 0.00 | 0.00 | 43 | 1013.4 |
| 20260507055114 | 17 | 142 | 0.0 | 0.0 | 0.00 | 0.00 | 0.00 | 43 | 1013.2 |
| 20260507054610 | 17 | 155 | 0.0 | 0.0 | 0.00 | 0.00 | 0.00 | 42 | 1013.2 |
| 20260507054107 | 17 | 159 | 1.6 | 1.6 | 0.00 | 0.00 | 0.00 | 41 | 1013.0 |
| 20260507053605 | 17 | 218 | 3.2 | 4.8 | 0.00 | 0.00 | 0.00 | 41 | 1013.4 |
| 20260507053104 | 17 | 271 | 6.4 | 9.7 | 0.00 | 0.00 | 0.00 | 43 | 1013.3 |
| 20260507052601 | 17 | 241 | 4.8 | 4.8 | 0.00 | 0.00 | 0.00 | 44 | 1013.1 |
| 20260507052058 | 17 | 140 | 3.2 | 3.2 | 0.00 | 0.00 | 0.00 | 42 | 1013.1 |
| 20260507051555 | 17 | 200 | 1.6 | 1.6 | 0.00 | 0.00 | 0.00 | 42 | 1013.2 |
| 20260507051052 | 17 | 321 | 3.2 | 4.8 | 0.00 | 0.00 | 0.00 | 42 | 1013.1 |
| 20260507050549 | 17 | 131 | 0.0 | 0.0 | 0.00 | 0.00 | 0.00 | 43 | 1012.9 |
| 20260507050045 | 17 | 256 | 4.8 | 4.8 | 0.00 | 0.00 | 0.00 | 45 | 1013.0 |
| 20260507045542 | 17 | 155 | 0.0 | 1.6 | 0.00 | 0.00 | 0.00 | 43 | 1013.1 |
| 20260507045039 | 17 | 172 | 6.4 | 6.4 | 0.00 | 0.00 | 0.00 | 42 | 1013.1 |
| 20260507044536 | 18 | 173 | 6.4 | 6.4 | 0.00 | 0.00 | 0.00 | 42 | 1013.0 |
| 20260507044033 | 18 | 148 | 4.8 | 6.4 | 0.00 | 0.00 | 0.00 | 39 | 1012.9 |
| 20260507043528 | 18 | 214 | 4.8 | 4.8 | 0.00 | 0.00 | 0.00 | 40 | 1013.2 |
| 20260507043026 | 18 | 185 | 1.6 | 3.2 | 0.00 | 0.00 | 0.00 | 40 | 1013.0 |
| 20260507042522 | 18 | 210 | 1.6 | 3.2 | 0.00 | 0.00 | 0.00 | 40 | 1013.0 |
| 20260507042017 | 18 | 224 | 9.7 | 11.3 | 0.00 | 0.00 | 0.00 | 39 | 1013.2 |
| 20260507041515 | 18 | 157 | 3.2 | 3.2 | 0.00 | 0.00 | 0.00 | 41 | 1013.2 |
| 20260507041011 | 18 | 198 | 1.6 | 3.2 | 0.00 | 0.00 | 0.00 | 42 | 1013.2 |
| 20260507040508 | 18 | 141 | 0.0 | 0.0 | 0.00 | 0.00 | 0.00 | 42 | 1013.1 |
| 20260507040004 | 19 | 209 | 4.8 | 6.4 | 0.00 | 0.00 | 0.00 | 39 | 1013.1 |
| 20260507035500 | 19 | 249 | 4.8 | 6.4 | 0.00 | 0.00 | 0.00 | 39 | 1012.9 |
| 20260507034956 | 19 | 218 | 4.8 | 6.4 | 0.00 | 0.00 | 0.00 | 38 | 1012.9 |
| 20260507034453 | 19 | 184 | 1.6 | 3.2 | 0.00 | 0.00 | 0.00 | 40 | 1012.7 |
| 20260507033952 | 18 | 204 | 4.8 | 4.8 | 0.00 | 0.00 | 0.00 | 40 | 1012.4 |
| 20260507033449 | 18 | 142 | 0.0 | 0.0 | 0.00 | 0.00 | 0.00 | 42 | 1012.6 |
| 20260507032946 | 18 | 147 | 3.2 | 3.2 | 0.00 | 0.00 | 0.00 | 42 | 1012.3 |
| 20260507032443 | 19 | 152 | 1.6 | 1.6 | 0.00 | 0.00 | 0.00 | 41 | 1012.3 |
| 20260507031939 | 19 | 164 | 3.2 | 3.2 | 0.00 | 0.00 | 0.00 | 40 | 1012.4 |
| 20260507031435 | 20 | 182 | 3.2 | 4.8 | 0.00 | 0.00 | 0.00 | 39 | 1012.4 |
| 20260507030932 | 20 | 157 | 1.6 | 1.6 | 0.00 | 0.00 | 0.00 | 38 | 1012.3 |
| 20260507030430 | 20 | 147 | 4.8 | 6.4 | 0.00 | 0.00 | 0.00 | 39 | 1012.3 |
| 20260507025927 | 20 | 175 | 3.2 | 3.2 | 0.00 | 0.00 | 0.00 | 36 | 1012.1 |
| 20260507025424 | 20 | 150 | 3.2 | 3.2 | 0.00 | 0.00 | 0.00 | 37 | 1012.3 |
| 20260507024922 | 21 | 237 | 4.8 | 4.8 | 0.00 | 0.00 | 0.00 | 36 | 1012.3 |
| 20260507024419 | 21 | 187 | 3.2 | 3.2 | 0.00 | 0.00 | 0.00 | 36 | 1012.3 |
| 20260507023914 | 21 | 189 | 3.2 | 3.2 | 0.00 | 0.00 | 0.00 | 35 | 1012.0 |
| 20260507023412 | 21 | 267 | 14.5 | 17.7 | 0.00 | 0.00 | 0.00 | 35 | 1012.4 |
| 20260507022909 | 21 | 203 | 6.4 | 6.4 | 0.00 | 0.00 | 0.00 | 35 | 1011.9 |
| 20260507022405 | 21 | 254 | 11.3 | 16.1 | 0.00 | 0.00 | 0.00 | 34 | 1011.8 |
| 20260507021901 | 21 | 241 | 6.4 | 6.4 | 0.00 | 0.00 | 0.00 | 34 | 1012.2 |
| 20260507021356 | 22 | 271 | 11.3 | 14.5 | 0.00 | 0.00 | 0.00 | 34 | 1012.2 |
| 20260507020855 | 22 | 265 | 11.3 | 12.9 | 0.00 | 0.00 | 0.00 | 34 | 1012.1 |
| 20260507020351 | 22 | 265 | 9.7 | 11.3 | 0.00 | 0.00 | 0.00 | 33 | 1012.0 |
| 20260507015848 | 22 | 286 | 9.7 | 14.5 | 0.00 | 0.00 | 0.00 | 33 | 1012.0 |
| 20260507015346 | 22 | 242 | 11.3 | 12.9 | 0.00 | 0.00 | 0.00 | 33 | 1012.0 |
| 20260507014843 | 22 | 309 | 9.7 | 12.9 | 0.00 | 0.00 | 0.00 | 33 | 1011.9 |
| 20260507014339 | 22 | 271 | 9.7 | 14.5 | 0.00 | 0.00 | 0.00 | 32 | 1011.7 |
| 20260507013836 | 23 | 295 | 16.1 | 17.7 | 0.00 | 0.00 | 0.00 | 32 | 1011.4 |
| 20260507013333 | 23 | 187 | 1.6 | 1.6 | 0.00 | 0.00 | 0.00 | 33 | 1011.7 |
| 20260507012831 | 23 | 199 | 4.8 | 4.8 | 0.00 | 0.00 | 0.00 | 33 | 1011.7 |
| 20260507012326 | 23 | 204 | 3.2 | 3.2 | 0.00 | 0.00 | 0.00 | 34 | 1011.7 |
| 20260507011823 | 23 | 263 | 3.2 | 3.2 | 0.00 | 0.00 | 0.00 | 34 | 1011.9 |
| 20260507011320 | 23 | 237 | 6.4 | 9.7 | 0.00 | 0.00 | 0.00 | 36 | 1011.9 |
| 20260507010820 | 23 | 227 | 4.8 | 6.4 | 0.00 | 0.00 | 0.00 | 34 | 1011.8 |
| 20260507010315 | 23 | 330 | 9.7 | 12.9 | 0.00 | 0.00 | 0.00 | 34 | 1011.9 |
| 20260507005813 | 23 | 309 | 6.4 | 11.3 | 0.00 | 0.00 | 0.00 | 33 | 1011.8 |
| 20260507005310 | 23 | 258 | 9.7 | 14.5 | 0.00 | 0.00 | 0.00 | 34 | 1012.0 |
| 20260507004807 | 23 | 325 | 8.0 | 11.3 | 0.00 | 0.00 | 0.00 | 35 | 1011.7 |
| 20260507004304 | 23 | 249 | 8.0 | 11.3 | 0.00 | 0.00 | 0.00 | 37 | 1011.8 |
| 20260507003800 | 23 | 311 | 20.9 | 25.7 | 0.00 | 0.00 | 0.00 | 36 | 1011.7 |
| 20260507003256 | 23 | 283 | 11.3 | 16.1 | 0.00 | 0.00 | 0.00 | 36 | 1011.9 |
| 20260507002752 | 23 | 275 | 8.0 | 9.7 | 0.00 | 0.00 | 0.00 | 37 | 1011.6 |
| 20260507002248 | 23 | 302 | 9.7 | 12.9 | 0.00 | 0.00 | 0.00 | 37 | 1011.7 |
| 20260507001745 | 23 | 226 | 14.5 | 17.7 | 0.00 | 0.00 | 0.00 | 36 | 1011.7 |
| 20260507001242 | 23 | 254 | 8.0 | 12.9 | 0.00 | 0.00 | 0.00 | 38 | 1011.6 |
| 20260507000738 | 23 | 256 | 6.4 | 9.7 | 0.00 | 0.00 | 0.00 | 39 | 1011.6 |
| 20260507000234 | 23 | 260 | 14.5 | 17.7 | 0.00 | 0.00 | 0.00 | 41 | 1011.6 |
| 20260506235731 | 24 | 234 | 6.4 | 6.4 | 0.00 | 0.00 | 0.00 | 40 | 1011.3 |
| 20260506235227 | 23 | 237 | 9.7 | 12.9 | 0.00 | 0.00 | 0.00 | 41 | 1011.4 |
| 20260506234724 | 23 | 262 | 14.5 | 16.1 | 0.00 | 0.00 | 0.00 | 41 | 1011.3 |
| 20260506234221 | 23 | 251 | 16.1 | 22.5 | 0.00 | 0.00 | 0.00 | 42 | 1011.3 |
| 20260506233719 | 23 | 252 | 11.3 | 16.1 | 0.00 | 0.00 | 0.00 | 42 | 1011.9 |
| 20260506233215 | 23 | 233 | 19.3 | 22.5 | 0.00 | 0.00 | 0.00 | 40 | 1011.6 |
| 20260506232711 | 24 | 323 | 9.7 | 12.9 | 0.00 | 0.00 | 0.00 | 40 | 1011.8 |
| 20260506232206 | 24 | 285 | 16.1 | 22.5 | 0.00 | 0.00 | 0.00 | 38 | 1011.7 |